Chicopee, MA

10:23 AM EDT on April 23, 2017 (GMT -0400)
Westover Air Reserve Base / Metropolitan Airport

Weather History for KCEF - March, 2014

Change the Weather History Date:

Wednesday, March 5, 2014

  Actual Average Record
Temperature  
Mean Temperature 24 °F -  
Max Temperature 29 °F 39 °F 51 °F (2011)
Min Temperature 16 °F 22 °F 0 °F (2009)
Degree Days  
Heating Degree Days 42    
Moisture  
Dew Point 11 °F    
Average Humidity 60    
Maximum Humidity 77    
Minimum Humidity 50    
Precipitation  
Precipitation 0.00 in - - ()
Sea Level Pressure  
Sea Level Pressure 30.33 in    
Wind  
Wind Speed 4 mph (NNE)    
Max Wind Speed 15 mph    
Max Gust Speed -    
Visibility 10 miles    
Events Snow    
Averages and records for this station are not official NWS values.
T = Trace of Precipitation, MM = Missing Value Source: NWS Daily Summary

Daily Weather History Graph

Daily Weather History Graph

Search for Another Location

Airport or City:

Trip Planner

Search our weather history database for the weather conditions in past years. The results will help you decide how hot, cold, wet, or windy it might be!

Date:

Astronomy

Mar. 05, 2014 Rise Set
Actual Time 6:18 AM EST 5:44 PM EST
Civil Twilight 5:50 AM EST 6:12 PM EST
Nautical Twilight 5:18 AM EST 6:45 PM EST
Astronomical Twilight 4:46 AM EST 7:17 PM EST
Moon 8:37 AM EST (3/5) 10:56 PM EST (3/5)
Length of Visible Light 12h 22m
Length of Day
11h 26m
Waxing Crescent, 23% of the Moon is Illuminated
Mar 5
Waxing Crescent
Mar 8
First Quarter
Mar 16
Full
Mar 23
Last Quarter
Mar 30
New

Hourly Weather History & Observations

Time (EST) Temp. Windchill Dew Point Humidity Pressure Visibility Wind Dir Wind Speed Gust Speed Precip Events Conditions
12:00 AM 21.2 °F - 6.8 °F 54% 30.24 in 10.0 mi Calm Calm - N/A Snow Light Snow
12:08 AM 21.2 °F - 12.2 °F 68% 30.24 in 10.0 mi Calm Calm - N/A   Overcast
12:58 AM 21.4 °F - 10.0 °F 62% 30.27 in 10.0 mi North 1.2 mph - 0.00 in   Overcast
1:58 AM 21.6 °F - 11.1 °F 64% 30.27 in 10.0 mi North 1.2 mph - N/A   Overcast
2:58 AM 20.3 °F 13.8 °F 14.2 °F 77% 30.25 in 10.0 mi NNE 4.6 mph - N/A   Overcast
3:58 AM 20.3 °F - 10.8 °F 67% 30.24 in 10.0 mi NE 2.3 mph - N/A   Overcast
4:58 AM 21.0 °F - 9.5 °F 61% 30.25 in 10.0 mi WNW 2.3 mph - N/A   Overcast
5:58 AM 21.0 °F - 10.2 °F 63% 30.27 in 10.0 mi Calm Calm - N/A   Overcast
6:58 AM 21.0 °F - 9.0 °F 60% 30.27 in 10.0 mi ENE 2.3 mph - N/A   Overcast
7:58 AM 21.9 °F 17.2 °F 10.6 °F 62% 30.31 in 10.0 mi NNW 3.5 mph - N/A   Mostly Cloudy
8:58 AM 22.6 °F 16.5 °F 10.4 °F 59% 30.31 in 10.0 mi North 4.6 mph - N/A   Mostly Cloudy
9:58 AM 24.3 °F 17.3 °F 11.7 °F 59% 30.30 in 10.0 mi North 5.8 mph - N/A   Overcast
10:58 AM 25.5 °F 18.7 °F 12.4 °F 58% 30.31 in 10.0 mi North 5.8 mph - N/A   Overcast
11:58 AM 25.9 °F 18.2 °F 13.1 °F 58% 30.29 in 10.0 mi North 6.9 mph - N/A   Overcast
12:58 PM 26.4 °F 20.9 °F 14.5 °F 61% 30.28 in 10.0 mi North 4.6 mph - N/A   Overcast
1:58 PM 27.7 °F 21.3 °F 13.8 °F 56% 30.28 in 10.0 mi North 5.8 mph - N/A   Overcast
2:58 PM 28.6 °F 24.8 °F 13.5 °F 53% 30.29 in 10.0 mi NNE 3.5 mph - N/A   Overcast
3:58 PM 29.1 °F 23.0 °F 12.6 °F 50% 30.31 in 10.0 mi NE 5.8 mph - N/A   Overcast
4:58 PM 28.6 °F 22.4 °F 14.0 °F 54% 30.32 in 10.0 mi NNE 5.8 mph - N/A   Overcast
5:58 PM 27.5 °F 17.4 °F 15.6 °F 61% 30.36 in 10.0 mi North 11.5 mph - N/A   Overcast
6:58 PM 25.2 °F 13.9 °F 15.1 °F 66% 30.38 in 10.0 mi NNE 12.7 mph - N/A   Overcast
7:58 PM 23.7 °F 11.5 °F 11.5 °F 60% 30.42 in 10.0 mi NNE 13.8 mph - N/A   Scattered Clouds
8:58 PM 21.6 °F 8.2 °F 11.7 °F 66% 30.46 in 10.0 mi NNE 15.0 mph - N/A   Clear
9:58 PM 19.9 °F 6.2 °F 8.8 °F 62% 30.49 in 10.0 mi NE 15.0 mph - N/A   Clear
10:58 PM 18.0 °F 6.1 °F 3.2 °F 53% 30.51 in 10.0 mi NE 10.4 mph - N/A   Clear
11:58 PM 16.3 °F 1.6 °F 3.2 °F 56% 30.53 in 10.0 mi NNE 15.0 mph - N/A   Clear